Time,TemperatureF,DewpointF,PressureIn,WindDirection,WindDirectionDegrees,WindSpeedMPH,WindSpeedGustMPH,Humidity,HourlyPrecipIn,Conditions,Clouds,dailyrainin,SoftwareType,DateUTC
2017-02-22 00:01:00,38.0,37.0,30.13,SSW,196,0.0,1.0,97,0.00,,,0.00,weatherlink.com 1.10,2017-02-22 08:01:00,
2017-02-22 00:16:00,37.9,37.0,30.14,South,191,0.0,2.0,97,0.00,,,0.00,weatherlink.com 1.10,2017-02-22 08:16:00,
2017-02-22 00:31:00,37.6,37.0,30.14,SSW,202,0.0,8.0,98,0.00,,,0.00,weatherlink.com 1.10,2017-02-22 08:31:00,
2017-02-22 00:46:00,37.4,37.0,30.14,SE,146,1.0,6.0,97,0.00,,,0.00,weatherlink.com 1.10,2017-02-22 08:46:00,
2017-02-22 01:01:00,37.4,37.0,30.14,SSW,204,5.0,6.0,97,0.00,,,0.00,weatherlink.com 1.10,2017-02-22 09:01:00,
2017-02-22 01:16:00,37.2,37.0,30.14,SSE,163,0.0,6.0,97,0.00,,,0.00,weatherlink.com 1.10,2017-02-22 09:16:00,
2017-02-22 01:31:00,36.8,36.0,30.15,SSW,193,0.0,6.0,98,0.00,,,0.00,weatherlink.com 1.10,2017-02-22 09:31:00,
2017-02-22 01:46:00,36.3,36.0,30.15,South,171,1.0,1.0,97,0.00,,,0.00,weatherlink.com 1.10,2017-02-22 09:46:00,
2017-02-22 02:01:00,36.2,36.0,30.15,SSW,192,0.0,7.0,97,0.00,,,0.00,weatherlink.com 1.10,2017-02-22 10:01:00,
2017-02-22 02:16:00,35.9,35.0,30.15,SE,140,0.0,2.0,97,0.00,,,0.00,weatherlink.com 1.10,2017-02-22 10:16:00,
2017-02-22 02:31:00,35.5,35.0,30.15,SE,143,0.0,0.0,97,0.00,,,0.00,weatherlink.com 1.10,2017-02-22 10:31:00,
2017-02-22 02:46:00,35.3,35.0,30.15,SE,144,0.0,0.0,97,0.00,,,0.00,weatherlink.com 1.10,2017-02-22 10:46:00,
2017-02-22 03:01:00,35.4,35.0,30.15,SE,144,0.0,0.0,97,0.00,,,0.00,weatherlink.com 1.10,2017-02-22 11:01:00,
2017-02-22 03:16:00,35.4,35.0,30.15,SE,144,0.0,0.0,97,0.00,,,0.00,weatherlink.com 1.10,2017-02-22 11:16:00,
2017-02-22 03:31:00,35.4,35.0,30.16,SW,214,0.0,0.0,97,0.00,,,0.00,weatherlink.com 1.10,2017-02-22 11:31:00,
2017-02-22 03:46:00,35.5,35.0,30.16,SSW,213,0.0,0.0,97,0.00,,,0.00,weatherlink.com 1.10,2017-02-22 11:46:00,
2017-02-22 04:01:00,35.5,35.0,30.16,SSW,213,0.0,0.0,97,0.00,,,0.00,weatherlink.com 1.10,2017-02-22 12:01:00,
2017-02-22 04:16:00,35.4,35.0,30.16,SSW,213,0.0,0.0,97,0.00,,,0.00,weatherlink.com 1.10,2017-02-22 12:16:00,
2017-02-22 04:31:00,35.2,35.0,30.17,SSW,213,0.0,0.0,97,0.00,,,0.00,weatherlink.com 1.10,2017-02-22 12:31:00,
2017-02-22 04:46:00,35.2,35.0,30.17,SSW,213,0.0,0.0,97,0.00,,,0.00,weatherlink.com 1.10,2017-02-22 12:46:00,
2017-02-22 05:01:00,35.0,34.0,30.16,SSW,213,0.0,0.0,97,0.00,,,0.00,weatherlink.com 1.10,2017-02-22 13:01:00,
2017-02-22 05:16:00,34.6,34.0,30.17,SSW,213,0.0,0.0,97,0.00,,,0.00,weatherlink.com 1.10,2017-02-22 13:16:00,
2017-02-22 05:31:00,34.4,34.0,30.17,SSW,213,0.0,0.0,97,0.00,,,0.00,weatherlink.com 1.10,2017-02-22 13:31:00,
2017-02-22 05:46:00,34.0,33.0,30.17,SSW,213,0.0,0.0,97,0.00,,,0.00,weatherlink.com 1.10,2017-02-22 13:46:00,
2017-02-22 06:02:00,33.4,33.0,30.16,SSW,213,0.0,0.0,97,0.00,,,0.00,weatherlink.com 1.10,2017-02-22 14:02:00,
2017-02-22 06:17:00,32.9,32.0,30.16,SSW,213,0.0,0.0,97,0.00,,,0.00,weatherlink.com 1.10,2017-02-22 14:17:00,
2017-02-22 06:32:00,32.6,32.0,30.16,ESE,111,0.0,0.0,97,0.00,,,0.00,weatherlink.com 1.10,2017-02-22 14:32:00,
2017-02-22 06:47:00,32.4,32.0,30.16,ESE,111,0.0,0.0,97,0.00,,,0.00,weatherlink.com 1.10,2017-02-22 14:47:00,
2017-02-22 07:02:00,32.4,32.0,30.16,ESE,111,0.0,0.0,97,0.00,,,0.00,weatherlink.com 1.10,2017-02-22 15:02:00,
2017-02-22 07:17:00,32.4,32.0,30.16,ESE,111,0.0,0.0,97,0.00,,,0.00,weatherlink.com 1.10,2017-02-22 15:17:00,
2017-02-22 07:32:00,32.6,32.0,30.16,ESE,111,0.0,0.0,97,0.00,,,0.00,weatherlink.com 1.10,2017-02-22 15:32:00,
2017-02-22 07:47:00,33.0,32.0,30.17,ESE,110,0.0,0.0,97,0.00,,,0.00,weatherlink.com 1.10,2017-02-22 15:47:00,
2017-02-22 08:02:00,34.1,34.0,30.17,ESE,110,0.0,0.0,98,0.00,,,0.00,weatherlink.com 1.10,2017-02-22 16:02:00,
2017-02-22 08:17:00,34.8,34.0,30.17,ESE,111,0.0,0.0,98,0.00,,,0.00,weatherlink.com 1.10,2017-02-22 16:17:00,
2017-02-22 08:32:00,35.2,35.0,30.17,ESE,111,0.0,0.0,98,0.00,,,0.00,weatherlink.com 1.10,2017-02-22 16:32:00,
2017-02-22 08:47:00,35.4,35.0,30.17,ESE,116,0.0,0.0,98,0.00,,,0.00,weatherlink.com 1.10,2017-02-22 16:47:00,
2017-02-22 09:02:00,35.4,35.0,30.18,ESE,116,0.0,0.0,98,0.00,,,0.00,weatherlink.com 1.10,2017-02-22 17:02:00,
2017-02-22 09:17:00,35.7,35.0,30.18,WNW,291,0.0,2.0,97,0.00,,,0.00,weatherlink.com 1.10,2017-02-22 17:17:00,
2017-02-22 09:32:00,36.3,36.0,30.19,WNW,288,0.0,0.0,97,0.00,,,0.00,weatherlink.com 1.10,2017-02-22 17:32:00,
2017-02-22 09:47:00,36.9,36.0,30.18,WNW,288,0.0,0.0,95,0.00,,,0.00,weatherlink.com 1.10,2017-02-22 17:47:00,
2017-02-22 10:02:00,36.7,35.0,30.18,WNW,288,0.0,0.0,94,0.00,,,0.00,weatherlink.com 1.10,2017-02-22 18:02:00,
2017-02-22 10:17:00,37.2,35.0,30.18,WNW,287,0.0,0.0,90,0.00,,,0.00,weatherlink.com 1.10,2017-02-22 18:17:00,
2017-02-22 10:32:00,37.8,34.0,30.18,West,275,0.0,0.0,85,0.00,,,0.00,weatherlink.com 1.10,2017-02-22 18:32:00,
2017-02-22 10:47:00,37.9,34.0,30.18,West,273,0.0,0.0,84,0.00,,,0.00,weatherlink.com 1.10,2017-02-22 18:47:00,
2017-02-22 11:02:00,38.5,34.0,30.18,West,273,0.0,2.0,84,0.00,,,0.00,weatherlink.com 1.10,2017-02-22 19:02:00,
2017-02-22 11:17:00,38.9,32.0,30.18,West,277,0.0,4.0,76,0.00,,,0.00,weatherlink.com 1.10,2017-02-22 19:17:00,
2017-02-22 11:32:00,38.6,32.0,30.17,West,279,0.0,0.0,78,0.00,,,0.00,weatherlink.com 1.10,2017-02-22 19:32:00,
2017-02-22 11:47:00,38.5,33.0,30.17,West,277,0.0,0.0,81,0.00,,,0.00,weatherlink.com 1.10,2017-02-22 19:47:00,
2017-02-22 12:02:00,38.6,34.0,30.16,West,278,0.0,0.0,84,0.00,,,0.00,weatherlink.com 1.10,2017-02-22 20:02:00,
2017-02-22 12:17:00,39.2,34.0,30.16,WNW,284,2.0,4.0,80,0.00,,,0.00,weatherlink.com 1.10,2017-02-22 20:17:00,
2017-02-22 12:32:00,39.6,34.0,30.15,SW,227,0.0,2.0,80,0.00,,,0.00,weatherlink.com 1.10,2017-02-22 20:32:00,
2017-02-22 12:47:00,39.8,34.0,30.14,WSW,243,0.0,2.0,79,0.00,,,0.00,weatherlink.com 1.10,2017-02-22 20:47:00,
2017-02-22 13:02:00,39.6,33.0,30.13,WSW,254,1.0,2.0,77,0.00,,,0.00,weatherlink.com 1.10,2017-02-22 21:02:00,
2017-02-22 13:17:00,40.1,33.0,30.13,WNW,293,0.0,2.0,76,0.00,,,0.00,weatherlink.com 1.10,2017-02-22 21:17:00,
2017-02-22 13:32:00,40.4,34.0,30.13,West,276,5.0,5.0,78,0.00,,,0.00,weatherlink.com 1.10,2017-02-22 21:32:00,
2017-02-22 13:47:00,41.2,32.0,30.12,South,183,0.0,5.0,69,0.00,,,0.00,weatherlink.com 1.10,2017-02-22 21:47:00,
2017-02-22 14:02:00,41.6,34.0,30.12,SE,132,0.0,2.0,73,0.00,,,0.00,weatherlink.com 1.10,2017-02-22 22:02:00,
2017-02-22 14:17:00,42.1,33.0,30.11,South,186,0.0,6.0,71,0.00,,,0.00,weatherlink.com 1.10,2017-02-22 22:17:00,
2017-02-22 14:32:00,41.7,34.0,30.11,WSW,252,2.0,6.0,75,0.00,,,0.00,weatherlink.com 1.10,2017-02-22 22:32:00,
2017-02-22 14:47:00,41.6,32.0,30.10,WSW,254,0.0,5.0,70,0.00,,,0.00,weatherlink.com 1.10,2017-02-22 22:47:00,
2017-02-22 15:02:00,41.2,32.0,30.11,South,191,0.0,0.0,71,0.00,,,0.00,weatherlink.com 1.10,2017-02-22 23:02:00,
2017-02-22 15:17:00,41.8,32.0,30.10,SSE,152,0.0,4.0,67,0.00,,,0.00,weatherlink.com 1.10,2017-02-22 23:17:00,
2017-02-22 15:32:00,40.9,30.0,30.10,South,179,0.0,0.0,65,0.00,,,0.00,weatherlink.com 1.10,2017-02-22 23:32:00,
2017-02-22 15:47:00,40.9,31.0,30.09,SSW,209,0.0,0.0,67,0.00,,,0.00,weatherlink.com 1.10,2017-02-22 23:47:00,
2017-02-22 16:02:00,40.2,31.0,30.09,SSE,153,0.0,0.0,69,0.00,,,0.00,weatherlink.com 1.10,2017-02-23 00:02:00,
2017-02-22 16:17:00,39.4,30.0,30.09,SSW,213,0.0,1.0,70,0.00,,,0.00,weatherlink.com 1.10,2017-02-23 00:17:00,
2017-02-22 16:32:00,38.7,31.0,30.09,South,180,0.0,2.0,75,0.00,,,0.00,weatherlink.com 1.10,2017-02-23 00:32:00,
2017-02-22 16:47:00,37.6,27.0,30.09,South,188,0.0,8.0,65,0.00,,,0.00,weatherlink.com 1.10,2017-02-23 00:47:00,
2017-02-22 17:03:00,36.6,28.0,30.09,SSE,164,0.0,0.0,72,0.00,,,0.00,weatherlink.com 1.10,2017-02-23 01:03:00,
2017-02-22 17:17:00,36.2,29.0,30.09,SSE,164,0.0,0.0,75,0.00,,,0.00,weatherlink.com 1.10,2017-02-23 01:17:00,
2017-02-22 17:33:00,34.6,31.0,30.10,South,179,0.0,5.0,86,0.00,,,0.00,weatherlink.com 1.10,2017-02-23 01:33:00,
2017-02-22 17:48:00,33.0,30.0,30.10,South,175,0.0,0.0,90,0.00,,,0.00,weatherlink.com 1.10,2017-02-23 01:48:00,
2017-02-22 18:02:00,32.4,30.0,30.09,SSW,202,0.0,0.0,91,0.00,,,0.00,weatherlink.com 1.10,2017-02-23 02:02:00,
2017-02-22 18:18:00,31.8,30.0,30.09,SSW,202,0.0,0.0,92,0.00,,,0.00,weatherlink.com 1.10,2017-02-23 02:18:00,
2017-02-22 18:32:00,31.7,30.0,30.09,SSW,202,0.0,0.0,93,0.00,,,0.00,weatherlink.com 1.10,2017-02-23 02:32:00,
2017-02-22 18:47:00,31.3,30.0,30.09,SSW,202,0.0,0.0,93,0.00,,,0.00,weatherlink.com 1.10,2017-02-23 02:47:00,
2017-02-22 19:03:00,30.9,29.0,30.08,SSW,202,0.0,0.0,93,0.00,,,0.00,weatherlink.com 1.10,2017-02-23 03:03:00,
2017-02-22 19:18:00,30.5,29.0,30.08,SSW,202,0.0,0.0,93,0.00,,,0.00,weatherlink.com 1.10,2017-02-23 03:18:00,
2017-02-22 19:33:00,30.4,29.0,30.09,SSW,202,0.0,0.0,94,0.00,,,0.00,weatherlink.com 1.10,2017-02-23 03:33:00,
2017-02-22 19:48:00,30.6,29.0,30.09,SSW,202,0.0,0.0,94,0.00,,,0.00,weatherlink.com 1.10,2017-02-23 03:48:00,
2017-02-22 20:03:00,30.9,29.0,30.09,SSW,202,0.0,0.0,94,0.00,,,0.00,weatherlink.com 1.10,2017-02-23 04:03:00,
2017-02-22 20:18:00,31.0,30.0,30.09,SSW,202,0.0,0.0,94,0.00,,,0.00,weatherlink.com 1.10,2017-02-23 04:18:00,
2017-02-22 20:33:00,31.2,30.0,30.09,SSW,202,0.0,0.0,95,0.00,,,0.00,weatherlink.com 1.10,2017-02-23 04:33:00,
2017-02-22 20:48:00,31.4,30.0,30.09,SSW,202,0.0,0.0,95,0.00,,,0.00,weatherlink.com 1.10,2017-02-23 04:48:00,
2017-02-22 21:03:00,31.4,30.0,30.09,SSW,202,0.0,0.0,95,0.00,,,0.00,weatherlink.com 1.10,2017-02-23 05:03:00,
2017-02-22 21:18:00,31.4,30.0,30.10,SSW,202,0.0,0.0,95,0.00,,,0.00,weatherlink.com 1.10,2017-02-23 05:18:00,
2017-02-22 21:33:00,31.2,30.0,30.10,SSW,202,0.0,0.0,95,0.00,,,0.00,weatherlink.com 1.10,2017-02-23 05:33:00,
2017-02-22 21:48:00,31.2,30.0,30.09,SSW,202,0.0,0.0,95,0.00,,,0.00,weatherlink.com 1.10,2017-02-23 05:48:00,
2017-02-22 22:03:00,31.3,30.0,30.09,SSW,202,0.0,0.0,95,0.00,,,0.00,weatherlink.com 1.10,2017-02-23 06:03:00,